CAPE
2099 2299 2225 2318 2432 2526 2559 2625 2623 2507 2530 2513 2431 2386 2413 2432 2411 2442 2724 2689 2650 2763 2999 3070 3236 3251 3130 3226 3186 3187 3119 2826 2465 2198 2164 2138 2084 2048 1976 1738 1368 1388 1288 1151 927 1066 988 874 938 796 965 720 664 679 607 750 789 617 692 652 480 596 481 412 452 513 834 379 303 277 437 579 513 856 832 651 741 1058 862 935 1107 812 547 594 532
1996 2086 2277 2349 2386 2424 2327 2368 2439 2433 2404 2401 2438 2434 2445 2497 2522 2586 2631 2752 2681 2637 2925 2970 3169 3205 3098 3300 3272 3241 3161 2969 2480 2195 2166 2098 2097 2078 2007 1858 1550 1454 1382 1310 1161 1035 1125 1084 995 974 1201 695 693 667 536 500 570 371 627 416 444 609 487 472 535 479 505 1138 627 564 607 812 834 1188 1004 868 709 876 1013 1073 1100 843 784 625 552
1892 2222 2298 2316 2348 2304 2320 2404 2421 2424 2378 2342 2286 2246 2340 2433 2397 2519 2478 2427 2653 2611 2786 2844 3188 3245 3178 3273 3420 3328 3248 2999 2636 2278 2159 2076 2038 2036 1999 1906 1721 1476 1397 1291 1201 1154 1086 1104 1042 1065 1136 815 864 681 561 696 530 489 606 596 546 409 708 552 530 634 592 698 895 716 909 974 898 932 1110 1155 1256 1284 1193 1113 705 710 1122 971 721
1821 2144 2109 2168 2296 2374 2437 2432 2334 2231 2215 2252 2165 2131 2118 2239 2398 2433 2376 2312 2502 2640 2697 2865 3159 3266 3169 3251 3406 3331 3252 2975 2679 2363 2264 2078 2010 1984 1938 1880 1774 1631 1443 1231 1202 1217 1092 1142 1044 990 1032 939 1017 941 894 776 838 827 744 914 727 642 846 798 647 617 698 716 1223 739 890 1018 1236 1193 1171 1165 1011 1066 1098 1028 1239 1275 1100 976 1106
1663 1824 1932 1937 2064 2283 2348 2314 2265 2236 2127 2117 2126 2069 2042 2081 2230 2237 2251 2224 2312 2624 2652 2783 3020 3116 2996 3103 3250 3288 3202 3024 2730 2347 2212 2034 1982 1934 1903 1869 1795 1692 1574 1391 1194 1283 1197 1168 1122 1123 1156 1004 1142 1049 964 966 927 802 775 912 846 774 937 943 922 865 788 804 874 1292 1178 1036 969 1125 1190 1082 1219 1443 1576 1482 1213 1191 1328 1155 928
1531 1723 1754 1791 2015 2212 2361 2268 2273 2209 2119 2103 2108 2093 2077 2156 2188 2213 2188 2230 2241 2335 2614 2628 2748 2927 2926 2967 3108 3196 3192 3079 2832 2513 2179 2015 1927 1907 1891 1847 1786 1695 1610 1496 1352 1132 1235 1238 1193 1240 1134 1026 1105 1093 1141 1096 1058 923 852 958 932 946 1114 1115 1078 1170 982 874 965 1064 1595 1180 1306 1396 1435 1273 1160 1168 1294 1360 1594 1617 1614 1434 1050
1669 1730 1701 1709 2046 2217 2367 2381 2369 2206 2285 2237 2224 2191 2156 2137 2170 2216 2190 2194 2180 2224 2313 2581 2660 2782 2870 2856 2879 3073 3149 2998 2893 2627 2315 2082 1937 1824 1833 1842 1794 1687 1647 1592 1498 1352 1159 1099 1275 1273 1145 1130 1107 1195 1219 1161 1072 949 1055 1170 1105 1127 1085 1099 1263 1213 1145 1012 1070 1117 1031 1142 1344 1271 1839 1047 1103 1079 1187 1289 1414 1502 1645 1445 1362
1709 1755 1712 1796 2180 2434 2411 2479 2455 2376 2320 2468 2424 2330 2246 2256 2329 2337 2320 2274 2201 2221 2228 2402 2636 2614 2779 2810 2833 2888 3050 2967 2860 2703 2409 2162 1976 1848 1728 1777 1774 1711 1648 1631 1570 1487 1353 1150 1049 1172 1126 1170 1094 1215 1251 1143 1057 1038 1118 1103 1144 1148 1021 1044 1242 1143 1133 1084 1003 992 1116 1120 1237 1342 1162 927 1147 1409 1348 1252 1248 1420 1492 1759 1659
1862 1834 1932 1983 2420 2649 2646 2600 2594 2510 2447 2625 2595 2498 2446 2478 2506 2470 2474 2386 2270 2277 2317 2305 2552 2596 2598 2786 2790 2723 2775 2841 2760 2614 2420 2228 2106 1918 1742 1694 1712 1679 1655 1637 1589 1532 1472 1357 1149 973 1078 921 707 919 940 840 1119 1089 1251 1192 1218 1179 1114 951 1216 1205 1141 1033 1046 1151 1236 1292 1266 1305 1403 1455 1483 1483 1816 1303 1334 1363 1432 1377 1678
2065 1858 1967 2331 2454 2370 2611 2608 2651 2755 2652 2685 2777 2632 2527 2548 2504 2556 2579 2518 2481 2480 2467 2464 2495 2651 2656 2763 2815 2744 2653 2683 2266 1881 1857 2175 2128 1971 1830 1666 1626 1628 1631 1628 1589 1560 1565 1495 1328 1143 981 811 663 516 42 46 439 916 1428 1334 1300 1212 1135 1096 1120 1204 1214 1087 1028 1061 1094 1136 1120 1618 1536 1554 1545 1553 1429 1485 1449 1446 1499 1485 1550
2056 2033 2225 2380 2299 2504 2568 2621 2695 2753 2654 2708 2701 2701 2654 2649 2634 2667 2642 2603 2570 2638 2644 2610 2559 2630 2668 2708 2808 2700 2650 2540 1895 1685 1584 1524 1885 2042 1924 1768 1643 1580 1613 1604 1593 1557 1582 1594 1469 1324 1161 980 768 715 533 0 0 52 593 729 930 1194 1166 1130 1123 1231 1275 1011 946 961 1042 1166 1376 1675 1534 1364 1396 1289 1383 1441 1365 1360 1276 1026 944
1960 2380 2303 2278 2516 2574 2504 2632 2663 2666 2733 2752 2775 2757 2670 2689 2722 2774 2784 2756 2780 2735 2770 2762 2811 2682 2655 2680 2682 2732 2688 2149 1799 1652 1573 1538 1493 1911 1969 1875 1721 1632 1584 1617 1579 1580 1632 1644 1557 1422 1327 1129 902 845 794 191 221 125 66 203 193 346 777 1265 1360 1324 1174 937 856 975 1061 1287 1704 1661 1322 1132 1340 1436 1492 1377 1342 1378 1209 982 825
2024 2290 2487 2533 2686 2679 2753 2742 2718 2709 2798 2735 2788 2877 2886 2874 2899 2916 2857 2844 2874 2936 2922 2814 2814 2821 2721 2791 2689 2676 2706 2110 1781 1670 1608 1564 1550 1567 1942 1937 1813 1711 1598 1626 1600 1592 1646 1662 1627 1519 1472 1296 1070 1000 987 663 471 236 0 0 0 253 254 316 664 1121 1027 1190 961 1051 1414 1658 1154 1173 1159 1312 1386 1391 1535 1400 1413 1345 1064 896 578
1945 2344 2623 2680 2745 2828 2806 2751 2780 2778 2822 2791 2836 2839 2825 2860 2811 2701 2743 2832 2892 2938 2823 2856 2933 2912 2850 2746 2430 2753 2819 2242 1853 1713 1634 1592 1569 1536 1792 1904 1869 1803 1743 1818 1797 1824 1845 1745 1715 1689 1602 1470 1303 1234 1243 1182 777 360 126 143 320 256 331 287 19 257 712 813 1089 1268 1394 1062 999 1061 1068 1388 1412 1422 1444 1353 1215 864 704 779 871
1980 2359 2608 2794 2861 2844 2954 2926 2976 2969 2963 2909 2848 2812 2806 2864 2844 2709 2688 2822 3008 3048 2991 2928 2914 2786 2725 2716 2738 2597 2729 2274 2021 1788 1719 1658 1611 1576 1562 1824 1826 1859 1880 1937 2014 2024 2062 1832 1806 1785 1700 1616 1518 1431 1413 1416 1234 843 542 485 453 716 393 312 230 271 334 515 1138 1355 1381 1135 1138 1236 1357 1266 1171 1250 1333 1284 1066 839 790 623 578
2331 2593 2641 2745 2788 2940 2889 2997 3014 3054 3008 2926 2882 2862 2910 2982 3007 2913 2785 2839 2986 3016 3043 2955 2959 2962 2842 2752 2458 2427 2470 2270 2112 1960 1822 1757 1701 1654 1626 1756 1697 1768 1898 1944 2019 2138 2032 1819 1880 1881 1808 1727 1651 1589 1630 1590 1529 1302 1048 950 960 912 950 712 468 424 662 790 996 860 912 732 875 1075 1350 1207 1146 1103 683 785 582 613 497 416 261
2521 2785 2644 2682 2644 2796 2811 2968 3019 2974 2999 2998 2983 2975 3000 3107 3106 3036 2930 2919 2940 2972 3053 2992 3058 3016 2829 2638 2745 2746 2668 2378 2257 2103 1926 1869 1823 1783 1744 1745 1773 1808 1830 2006 2016 1982 1839 1875 1911 1908 1879 1795 1733 1730 1712 1608 1532 1356 1131 1167 1220 1155 1082 1106 96 0 0 360 334 309 97 203 266 260 506 685 791 876 883 700 499 325 472 226 138
2736 2876 2707 2678 2788 2879 3089 3116 3024 3030 3062 3049 3070 3033 3069 3125 3147 3082 3036 2873 2780 2964 3023 3093 3160 3091 2848 2746 2911 2930 2927 2897 2351 2220 2092 1937 1906 1868 1864 1874 1891 1933 1911 1978 2061 1870 1911 1904 1952 1930 1899 1825 1821 1772 1684 1577 1460 1319 1101 1143 1182 1169 1157 942 351 189 0 336 285 267 118 0 184 530 661 674 511 333 890 557 461 224 145 158 106
2656 2610 2736 2777 2947 2844 2898 3035 3049 2985 3089 3094 3007 3112 3142 3246 3207 3224 2981 2949 2955 3085 3026 3064 3170 3257 3165 2953 2635 2807 3006 3119 2423 2365 2198 2090 2024 1995 1974 1958 1964 1941 1924 1932 1908 1950 1934 1953 1961 1968 1900 1886 1847 1697 1544 1418 1297 1248 1132 898 746 810 983 837 331 263 199 273 297 178 124 340 538 606 591 403 257 222 511 281 155 127 130 92 119
2707 2981 2880 3124 3012 3066 2958 3077 3099 2925 3030 3161 3044 3166 3286 3207 3247 3152 2964 2938 3033 3112 3052 3044 3231 3313 3118 2868 2927 2717 2874 3003 2541 2452 2335 2202 2119 2083 2072 2037 1963 1936 1918 1933 1998 1942 1964 1954 1966 1954 1916 1904 1772 1666 1570 1191 1134 1126 1080 996 705 998 872 797 596 390 722 723 847 920 1060 873 759 560 607 168 193 192 339 158 204 219 155 130 91
2874 2832 2964 2757 2938 3033 2905 2949 2940 3034 3124 3264 3173 3147 3329 3258 3164 3146 3048 3016 3072 3136 3129 3156 3022 3226 3208 2921 2707 2687 2772 2957 2650 2575 2430 2278 2184 2098 2099 2055 2016 1976 1928 1925 1940 1955 1970 1926 1898 1924 1929 1896 1767 1684 1615 1336 952 1057 1056 975 1036 1061 800 616 383 465 606 847 1114 947 899 788 538 370 333 257 184 120 74 84 111 115 98 65 10
2929 2920 2944 2864 2810 2810 2908 3102 3192 3113 3207 3304 3293 3236 3187 3169 3194 3404 3262 3276 3290 3188 3119 3275 3231 3090 2936 2844 3182 2814 2712 2580 2628 2552 2458 2359 2254 2180 2068 2082 2071 2210 1980 1954 1915 1983 2078 1998 1905 2000 2088 2065 1830 1614 1451 1198 831 912 982 872 804 621 513 514 341 494 473 497 512 436 479 408 330 355 132 104 73 48 47 63 66 86 88 32 7
3045 3163 3192 3132 3145 3170 3329 3370 3295 3298 3442 3596 3555 3372 3462 3473 3526 3590 3527 3421 3402 3391 3420 3329 3347 3192 2946 3324 2941 2981 3337 2634 2539 2501 2466 2400 2360 2251 2140 2057 2059 2131 2174 1960 1972 2089 1983 1922 2018 2271 2346 2115 1592 1260 1037 717 580 632 643 574 423 360 336 479 477 374 410 375 434 532 466 449 367 176 72 63 44 43 32 44 41 38 30 7 0
2921 3005 3060 3082 3141 3123 3239 3321 3377 3418 3597 3683 3539 3596 3653 3569 3546 3624 3578 3561 3490 3353 3422 3415 3346 3198 3109 3181 3261 3125 3086 2800 2636 2567 2477 2416 2396 2305 2180 2116 2070 2056 2008 2069 2069 1970 1934 2026 2298 2415 2288 1792 1127 849 787 754 656 633 536 474 399 359 273 450 425 522 476 418 560 404 404 464 220 88 74 46 26 54 24 5 5 0 3 1 10
2922 2855 2848 2921 3011 2914 2977 3097 3244 3502 3580 3653 3654 3726 3741 3796 3762 3782 3688 3612 3552 3441 3454 3383 3429 3110 3200 3173 3229 3188 3125 2719 2661 2640 2543 2469 2444 2379 2238 2154 2123 2079 2063 2072 2064 2033 2096 2334 2480 2359 1956 1361 1015 889 819 732 655 499 473 455 430 333 302 316 172 505 526 620 574 418 232 158 114 60 40 73 54 16 12 0 0 0 0 0 0
3633 3148 2890 2883 2895 2780 2840 2876 2971 3177 3435 3610 3763 3949 3831 3782 3754 3876 3807 3627 3558 3563 3555 3380 3316 3274 3253 3171 2984 3287 3871 2711 2690 2533 2422 2426 2373 2326 2275 2181 2136 2081 2101 2177 2130 2151 2329 2421 2390 2066 1620 1198 1057 877 783 652 511 545 496 463 330 276 333 202 481 521 621 616 515 475 329 112 26 34 82 58 12 0 0 0 0 0 0 0 0
3842 3776 3720 3289 3030 2844 2855 2636 2668 2887 3188 3266 3435 3652 3724 3742 3747 3756 3826 3680 3650 3444 3179 3281 3331 3156 3195 3255 3435 3553 2887 2753 2604 2512 2468 2357 2267 2267 2250 2233 2158 2140 2140 2169 2219 2272 2299 2267 2160 1721 1254 1150 1010 937 770 509 555 523 480 398 320 154 180 406 363 480 707 565 514 346 97 15 13 30 25 12 3 2 0 0 0 0 0 0 0
3108 3366 3488 3674 3732 3675 3554 3424 3235 3001 2750 2765 2731 3071 3287 3332 3568 3691 3688 3711 3651 3551 3556 3375 3347 3109 3263 3033 3499 3041 2746 2666 2557 2510 2440 2346 2277 2227 2220 2205 2177 2193 2160 2156 2285 2303 2088 1994 1731 1284 1106 994 984 873 570 515 505 392 345 0 18 43 75 82 185 670 622 429 279 65 10 4 4 1 0 0 0 1 0 0 0 0 0 0 0
2200 2424 2571 2637 2788 3243 3393 3653 3542 3444 3410 3270 3202 3093 3038 2915 2838 3424 3589 3757 3815 3718 3600 3274 3354 3274 2967 3144 3338 3358 2660 2603 2565 2504 2426 2387 2294 2185 2171 2207 2221 2214 2189 2260 2373 2202 1796 1670 1331 1028 1053 1073 885 557 480 392 361 136 251 0 0 0 0 12 187 424 334 156 53 20 0 0 0 0 0 0 3 11 5 8 2 0 0 0 0
1720 1646 1565 1534 1505 1696 1871 2127 2145 2135 2213 2620 2966 3100 3026 2946 2852 2713 2932 2790 3060 3198 3147 3408 3585 3402 3189 3492 3472 3214 2610 2493 2589 2373 2332 2396 2332 2236 2181 2183 2267 2243 2290 2491 2392 1911 1511 1367 1068 1194 1200 834 541 482 373 336 0 0 0 0 0 0 0 59 233 159 15 6 11 0 0 0 1 0 0 0 32 10 3 2 0 0 0 0 0
1142 1020 827 791 835 862 830 779 770 824 811 1036 1251 1252 1378 1498 1132 1195 1288 2264 2537 2462 2447 2657 2767 2828 3060 3363 3178 2647 2426 2409 2276 2313 2349 2331 2283 2284 2189 2212 2298 2315 2382 2483 1975 1613 1059 942 1173 1246 651 454 396 0 0 0 0 0 0 0 0 0 0 18 53 6 0 0 1 0 0 0 0 0 0 0 5 3 0 0 0 0 0 0 0
915 912 1034 1148 1018 788 707 631 607 575 650 742 935 947 952 1100 1169 695 302 131 161 544 940 1542 2044 2323 2402 2501 2691 2532 2445 2421 2329 2251 2273 2290 2270 2288 2077 1964 2079 2119 2084 1890 1581 1124 1466 1353 984 536 378 276 0 0 0 0 0 0 0 0 0 0 0 17 6 0 0 0 0 0 0 0 0 0 0 3 1 0 0 0 0 0 0 0 0
920 1016 1067 953 795 704 638 692 601 752 787 770 600 674 615 557 475 366 231 0 0 0 0 0 235 1017 1713 2063 2190 2303 2322 2361 2197 2364 2317 2155 2157 2105 2021 2008 2008 1552 1328 984 994 1399 1099 773 526 440 338 0 6 6 0 0 0 0 0 0 0 0 1 6 0 0 0 0 0 0 0 0 0 0 0 0 0 0 0 0 0 0 0 0 0
942 985 970 928 928 907 893 804 624 546 435 563 428 339 280 261 240 97 14 5 1 0 0 0 0 0 70 712 1659 1843 2104 2173 2190 2250 2266 2105 1918 1871 1902 1886 1808 1640 1082 984 847 807 581 558 442 286 0 0 3 4 2 3 9 14 2 8 22 5 1 1 0 0 0 0 0 0 0 0 0 0 0 0 0 0 0 0 0 0 0 0 0
801 886 1049 1131 1151 1150 1040 737 586 540 450 287 324 427 572 540 315 164 65 0 0 0 0 0 0 0 0 0 0 617 1139 1553 1998 2025 2073 1855 1786 1646 1788 1880 1479 1204 945 733 780 687 487 281 155 32 0 0 10 12 3 7 13 15 19 53 24 20 18 0 0 0 0 0 0 0 0 0 0 0 0 0 0 0 0 0 0 0 0 0 0
793 690 743 854 912 894 881 719 468 332 252 253 210 305 466 469 336 149 14 0 0 0 0 0 0 0 0 0 0 1 319 1006 1513 1669 1825 1883 1602 1706 1645 1627 1184 909 610 519 258 126 194 98 83 15 0 4 6 0 44 15 29 22 56 48 16 9 2 0 0 1 0 0 0 0 0 0 0 0 0 0 0 0 0 0 0 0 0 0 0
1027 989 947 971 990 924 888 737 585 513 4 68 162 359 295 252 134 59 33 0 0 0 0 0 0 0 0 0 0 0 104 355 850 1250 1372 1354 1503 1658 1450 1080 833 363 343 295 164 102 88 7 0 0 1 3 0 7 12 14 2 16 14 28 19 9 6 7 5 4 2 0 0 0 0 0 0 0 0 0 0 0 0 0 0 0 0 0 0
830 804 814 760 739 752 748 681 551 488 557 502 179 23 28 6 1 0 0 0 0 0 0 0 0 0 0 0 7 0 2 230 428 1330 1133 1038 974 863 578 360 365 244 195 188 166 123 0 0 0 0 0 0 0 4 1 1 10 14 0 10 8 8 0 0 0 6 6 1 0 0 0 0 0 0 0 0 0 0 0 0 0 0 0 0 0
624 692 717 742 708 652 622 642 641 644 611 556 489 396 0 0 0 0 0 0 0 0 0 0 0 0 0 0 26 45 19 200 795 437 303 458 452 428 363 300 321 302 253 190 125 26 0 0 0 0 0 1 2 0 0 0 2 0 0 0 0 0 0 0 0 1 0 0 0 0 0 0 0 0 0 0 0 0 0 0 0 0 0 0 0
761 806 283 74 555 409 454 436 447 449 501 527 522 453 388 342 236 304 140 0 0 0 0 0 0 0 35 72 107 159 145 354 328 100 202 372 497 457 372 342 270 229 225 94 12 0 0 0 0 0 0 0 0 0 0 0 0 0 0 0 0 0 0 0 0 0 0 0 0 0 0 0 0 0 0 0 0 0 0 0 0 0 0 0 0
955 864 757 382 272 584 488 333 307 145 68 388 401 187 145 282 331 332 23 0 0 17 53 0 0 0 14 38 75 62 161 286 286 290 342 332 424 418 316 233 170 139 76 25 6 0 2 0 0 0 0 0 0 0 0 0 0 0 0 0 0 0 0 0 0 0 0 0 0 0 0 0 0 0 0 0 0 0 0 0 0 0 0 0 0
1110 1017 931 839 647 518 452 308 257 185 44 322 367 328 40 34 176 261 172 134 0 38 118 151 34 93 95 89 80 100 155 248 280 251 283 288 260 212 140 137 96 77 117 70 43 28 0 0 0 0 0 0 0 0 0 0 0 0 0 0 0 0 0 0 0 0 0 0 0 0 0 0 0 0 0 0 0 0 0 0 0 0 0 0 0
987 770 825 733 591 387 271 195 302 241 203 262 319 316 259 150 132 89 136 185 201 152 238 253 266 147 24 8 38 122 200 189 176 255 179 199 254 180 168 54 43 65 56 38 5 0 0 0 0 0 0 0 0 0 0 0 0 0 0 0 0 0 0 0 0 0 0 0 0 0 0 0 0 0 0 0 0 0 0 0 0 0 0 0 0
752 774 693 684 661 495 247 176 169 144 184 236 245 251 189 225 138 159 63 166 202 151 194 194 183 118 57 42 62 83 121 160 170 168 165 186 200 183 75 57 75 2 1 0 0 0 0 0 0 0 0 0 0 0 0 0 0 0 0 0 0 0 0 0 0 0 0 0 0 0 0 0 0 0 0 0 0 0 0 0 0 0 0 0 0
433 604 606 607 545 505 398 247 153 160 151 192 196 111 79 93 130 118 161 84 166 139 115 72 62 79 71 12 27 34 50 81 88 88 72 88 85 68 38 24 36 38 38 26 26 12 0 0 0 0 0 0 0 0 0 0 0 0 0 0 0 0 0 0 0 0 0 0 0 0 0 0 0 0 0 0 0 0 0 0 0 0 0 0 0
456 619 429 330 263 275 297 303 220 199 116 136 129 139 87 53 35 18 14 89 88 63 76 66 87 92 76 67 33 15 12 23 29 25 18 26 28 42 61 72 83 82 70 55 24 0 0 16 42 36 0 0 0 0 0 0 0 0 0 0 0 0 0 0 0 0 0 0 0 0 0 0 0 0 0 0 0 0 0 0 0 0 0 0 0
152 171 81 97 100 70 58 56 75 77 97 32 47 53 37 3 0 0 24 49 49 80 64 70 114 132 148 140 119 100 79 70 68 71 72 71 80 107 125 135 124 112 108 99 97 91 92 86 0 0 0 0 0 0 0 0 0 0 0 0 0 0 0 0 0 0 0 0 0 0 0 0 0 0 0 0 0 0 0 0 0 0 0 0 0
21 24 28 36 44 42 40 33 39 33 54 65 44 44 27 14 0 0 0 30 39 51 60 90 123 127 176 163 155 150 145 126 117 124 138 148 164 172 171 166 168 172 163 149 112 82 0 0 0 0 0 0 0 0 0 0 0 0 0 0 0 0 0 0 0 0 0 0 0 0 0 0 0 0 0 0 0 0 0 0 0 0 0 0 0
4 2 6 15 20 30 32 40 31 20 27 31 34 41 55 53 29 32 38 29 100 52 52 74 79 88 77 101 108 97 100 116 128 160 170 190 200 201 202 219 205 152 103 140 18 0 0 0 0 0 0 0 0 0 0 0 0 0 0 0 0 0 0 0 0 0 0 0 0 0 0 0 0 0 0 0 0 0 0 0 0 0 0 0 0
1 0 1 0 0 0 11 18 23 15 7 12 3 8 15 8 18 14 15 55 60 83 71 50 85 96 102 68 49 15 0 14 47 78 98 118 124 122 109 111 92 36 0 0 0 0 0 0 0 0 0 0 0 0 0 0 0 0 0 0 0 0 0 0 0 0 0 0 0 0 0 0 0 0 0 0 0 0 0 0 0 0 0 0 0
0 0 1 1 2 1 1 0 0 0 2 3 3 4 8 6 7 8 8 8 2 57 62 91 69 151 148 131 100 51 0 0 0 0 0 0 0 0 0 0 0 0 0 0 0 0 0 0 0 0 0 0 0 0 0 0 0 0 0 0 0 0 0 0 0 0 0 0 0 0 0 0 0 0 0 0 0 0 0 0 0 0 0 0 0
Wind_Speed
16 15 15 14 15 16 16 15 15 14 14 14 14 14 15 16 16 16 16 15 15 15 16 17 18 17 14 12 12 13 14 14 14 14 13 12 12 13 14 15 15 14 14 15 14 16 16 18 18 18 17 16 15 15 15 16 15 15 15 15 16 17 17 16 15 14 15 17 17 18 20 19 20 21 21 23 24 27 28 28 28 29 29 29 29
16 17 16 16 16 15 15 15 15 15 15 15 15 16 17 18 18 19 17 16 17 16 17 18 19 17 13 12 13 13 15 15 15 15 14 13 13 12 12 15 15 16 16 16 16 15 17 20 21 20 18 18 17 17 16 17 16 16 16 16 16 17 18 17 17 15 14 17 18 19 19 22 20 22 22 23 24 26 27 28 30 30 30 29 31
16 18 17 16 15 15 15 15 16 17 16 16 15 16 17 18 20 19 18 17 18 18 19 20 20 17 14 12 13 13 14 14 14 15 14 14 14 13 13 15 16 17 18 17 17 17 19 22 23 22 20 19 18 19 20 21 20 19 18 17 17 18 19 19 18 18 17 17 18 19 21 22 21 21 22 23 23 24 25 25 26 29 31 30 30
15 16 16 14 15 15 15 15 16 16 16 16 16 15 16 18 20 20 19 19 19 20 20 21 21 17 14 13 13 13 14 15 15 15 15 14 14 15 14 15 16 17 19 18 19 20 22 23 23 24 23 22 20 21 23 24 25 23 20 18 18 18 19 20 20 18 18 19 23 23 23 24 24 22 21 21 21 23 24 25 26 26 26 28 29
14 15 14 13 14 14 15 15 15 15 14 14 14 15 16 17 19 19 20 19 19 21 22 21 19 15 12 12 13 13 14 15 16 15 14 14 14 15 16 16 17 17 19 21 22 23 25 26 26 25 25 25 24 25 26 27 26 25 22 20 19 18 18 20 20 20 20 21 23 27 28 28 27 26 25 23 24 25 27 26 26 25 24 24 27
13 14 14 13 13 15 14 14 13 13 12 12 12 13 14 15 16 19 20 19 19 19 20 19 16 13 11 12 13 14 15 16 17 16 16 15 15 15 16 17 18 18 19 21 24 25 27 28 27 28 29 29 28 29 29 28 25 23 23 21 21 20 21 21 21 21 22 22 24 25 30 29 30 30 30 30 27 27 27 27 29 30 29 28 29
14 15 15 14 13 13 14 13 12 11 11 11 11 12 13 13 14 16 18 18 17 16 16 15 13 12 11 12 13 15 17 17 18 18 17 16 16 17 17 18 18 18 19 22 25 27 28 29 30 32 33 33 31 30 29 28 23 22 22 23 23 23 22 22 22 23 23 23 24 26 26 27 28 29 33 32 30 29 28 28 29 33 34 35 36
15 15 15 14 12 12 12 12 11 11 10 10 10 11 12 12 12 13 14 15 14 13 13 13 12 12 11 12 13 16 18 19 19 19 19 18 18 18 18 18 19 19 19 21 25 27 30 31 33 35 35 34 32 30 30 27 23 22 22 23 23 24 24 24 24 23 23 24 24 26 27 27 29 31 32 31 30 31 33 32 31 32 33 35 38
15 15 16 14 11 11 10 10 9 10 10 11 12 12 12 12 11 12 12 13 12 11 11 11 12 12 12 12 14 17 19 19 19 20 21 21 20 19 19 19 19 18 18 20 23 26 29 31 33 35 34 33 36 33 31 29 26 25 25 26 26 26 25 25 25 25 24 24 25 26 26 28 30 31 31 31 31 29 34 35 34 33 33 33 38
14 13 13 11 10 10 10 9 10 11 12 13 14 15 15 15 15 15 14 14 12 12 11 12 12 13 14 14 15 17 19 20 21 24 23 24 24 22 21 20 19 18 18 19 22 26 29 30 32 38 36 35 36 36 nan nan 31 28 29 29 29 28 28 27 27 27 26 26 26 27 27 28 31 33 30 29 30 33 35 37 36 36 36 36 37
11 10 9 9 11 12 12 10 11 12 13 14 15 17 18 16 16 16 15 15 15 14 13 13 13 13 14 15 16 17 19 20 26 26 25 26 26 24 24 23 21 19 19 20 22 25 28 31 31 35 36 34 36 37 32 nan nan nan 31 32 31 31 31 30 30 30 30 28 27 28 28 29 31 32 29 28 32 34 35 37 37 38 38 37 37
10 8 7 9 12 13 13 13 13 13 14 16 16 17 18 17 17 17 16 17 16 15 14 15 14 14 14 15 16 17 18 22 30 29 27 27 27 26 26 25 23 21 19 20 21 23 27 29 30 31 34 34 33 33 32 32 33 32 nan 33 34 35 34 34 33 33 32 30 29 29 30 31 32 33 30 31 35 37 39 39 40 40 40 39 38
10 8 10 11 12 13 14 14 14 15 16 17 17 18 19 19 19 18 18 18 16 16 15 16 16 16 15 16 16 17 17 26 30 31 29 29 29 28 27 26 25 23 20 20 20 22 24 28 30 31 32 36 33 31 30 29 31 33 nan nan nan 37 37 36 36 34 34 33 30 30 32 34 34 33 33 35 36 37 40 41 42 42 41 39 38
11 10 12 11 12 14 15 15 15 16 18 19 20 20 20 19 20 19 18 19 18 17 18 18 17 17 17 17 16 16 16 26 31 32 31 31 32 31 28 28 26 25 23 21 19 20 24 28 30 32 33 36 34 32 29 30 31 32 31 32 33 35 37 37 nan 35 32 32 31 31 36 38 36 36 37 38 40 40 40 40 42 41 40 39 38
12 13 12 12 14 15 15 15 15 17 20 22 22 22 22 20 21 21 21 21 21 20 20 20 19 20 20 18 17 15 14 27 32 33 33 33 34 33 30 29 28 27 25 22 20 20 22 26 31 34 36 37 35 33 31 32 33 33 34 34 34 36 38 39 39 38 37 35 34 35 37 37 36 36 37 39 40 40 40 39 40 39 39 38 37
17 18 15 15 14 16 17 16 16 18 20 21 22 23 23 23 23 24 23 22 22 22 21 21 22 23 22 21 19 18 18 29 33 35 35 35 37 35 33 30 29 30 28 25 22 21 22 27 32 35 37 37 37 37 33 33 34 35 36 35 36 37 39 41 42 42 40 39 37 36 35 36 37 37 38 40 41 42 43 44 42 41 39 37 34
18 19 17 16 15 17 19 19 19 20 21 21 21 22 23 23 23 25 25 24 24 24 24 24 23 24 24 23 23 23 20 32 37 38 38 38 39 35 35 31 29 33 32 29 25 23 25 29 34 36 38 37 40 39 35 34 33 36 37 38 38 39 39 42 nan nan nan 42 41 38 nan 38 39 40 41 41 39 42 43 41 39 38 38 34 32
21 22 20 19 18 19 21 22 23 24 24 21 20 20 21 23 24 26 25 25 23 23 24 25 25 25 25 24 26 27 26 37 43 42 42 43 42 38 37 34 31 32 33 33 30 27 28 34 37 39 39 39 44 41 38 37 35 37 38 40 41 41 42 44 44 43 nan 39 38 38 38 nan 41 41 42 44 45 44 43 39 38 36 35 34 31
24 22 22 22 23 22 22 24 25 25 22 20 20 20 21 23 25 28 26 25 23 25 26 24 25 26 26 24 27 29 27 37 44 45 45 47 44 39 39 36 34 35 36 35 32 29 30 36 41 41 42 42 46 42 41 40 38 39 41 42 43 43 44 48 48 48 44 42 40 40 40 40 40 40 42 46 46 44 41 37 35 35 34 nan 31
23 22 23 26 27 28 29 29 27 25 23 23 24 23 25 27 28 30 28 28 28 28 27 26 24 26 25 24 28 30 28 34 42 45 47 49 49 43 41 38 37 36 38 40 40 36 35 35 41 45 45 47 47 43 42 44 41 41 43 44 44 45 46 49 50 49 46 43 42 42 41 42 42 43 45 46 45 44 40 37 35 35 35 34 nan
30 29 29 26 26 28 30 29 26 23 23 26 29 29 30 29 32 34 33 33 32 31 28 27 24 23 26 25 28 27 29 33 43 44 46 49 50 48 43 41 39 39 40 43 42 41 39 38 40 46 48 50 49 45 44 46 44 43 45 45 46 48 51 50 52 50 47 45 43 43 42 41 42 42 43 44 44 43 nan nan 37 36 nan nan nan
31 30 29 27 27 28 27 26 26 25 25 28 31 31 31 32 33 35 36 36 33 29 28 28 25 24 26 30 33 29 32 36 46 44 47 48 51 50 45 44 44 42 42 43 43 43 42 42 42 49 52 53 49 46 45 47 47 45 47 49 54 58 53 52 52 50 47 45 43 42 42 41 42 42 43 44 nan nan nan nan nan nan nan nan nan
30 30 30 30 30 31 29 28 28 29 29 30 31 31 34 36 36 37 39 38 34 32 30 30 31 30 29 36 34 34 39 43 46 47 46 48 50 50 46 45 46 46 44 43 44 45 44 44 46 54 55 53 50 47 48 49 50 48 55 59 58 58 55 52 53 50 47 45 44 43 41 41 42 42 nan nan nan nan nan nan nan nan nan nan nan
33 32 31 31 31 31 31 30 30 31 32 34 34 34 36 38 39 39 38 39 38 34 33 34 36 34 34 37 39 41 43 45 48 51 49 48 51 53 51 47 49 46 42 41 44 47 48 47 49 57 56 55 50 50 51 53 52 56 60 60 61 57 54 55 53 50 47 45 43 42 41 41 41 nan nan nan nan nan nan nan nan nan nan nan nan
36 34 34 34 34 33 34 34 34 34 36 38 38 39 39 40 40 39 40 40 39 37 37 39 38 37 39 40 40 43 46 50 52 51 53 49 50 52 52 53 52 50 47 48 48 49 54 55 58 59 58 55 52 54 54 55 58 62 61 63 61 54 53 54 53 50 47 44 43 42 41 41 42 nan nan nan nan nan nan nan nan nan nan nan nan
41 40 38 37 36 36 35 35 35 37 38 40 41 42 41 41 39 41 43 41 40 39 40 41 42 42 43 42 42 45 55 56 54 52 52 55 54 52 51 51 54 56 54 54 55 60 62 62 61 61 61 60 57 53 55 58 62 63 64 63 56 52 52 54 53 50 46 44 43 42 41 43 nan nan nan nan nan nan nan nan nan nan nan nan nan
47 46 44 42 41 39 37 36 37 39 39 39 39 39 40 40 39 41 41 38 39 42 42 43 45 43 44 46 50 56 61 59 56 55 56 55 55 55 53 52 53 58 59 64 66 63 64 62 59 62 64 64 59 61 63 66 64 62 59 57 54 51 51 52 51 48 45 43 43 42 nan nan nan nan nan nan nan nan nan nan nan nan nan nan nan
52 51 49 46 45 44 43 44 41 39 39 38 38 38 39 41 41 40 41 41 41 43 45 45 46 45 47 49 57 59 61 63 61 58 56 57 58 60 58 59 61 59 62 66 67 66 64 66 67 65 67 64 63 63 65 63 62 60 58 nan nan nan nan nan 47 44 42 42 42 nan nan nan nan nan nan nan nan nan nan nan nan nan nan nan nan
53 52 49 47 46 46 45 43 42 43 43 43 43 44 44 44 44 43 41 43 45 44 46 46 47 45 47 50 57 63 63 64 62 60 62 63 63 63 65 65 65 62 66 72 74 71 67 64 64 65 65 66 65 66 65 63 61 60 60 nan nan nan nan nan 45 43 43 44 nan nan nan nan nan nan nan nan nan nan nan nan nan nan nan nan nan
50 48 46 46 46 46 47 48 50 50 50 50 50 50 51 50 50 48 46 45 45 45 48 47 48 50 53 57 61 63 64 62 62 69 68 67 66 70 71 73 71 69 74 79 77 72 67 65 66 66 66 65 64 64 63 62 nan nan nan nan nan nan nan nan 43 42 nan nan nan nan nan nan nan nan nan nan nan nan nan nan nan nan nan nan nan
50 50 50 50 51 51 52 54 54 54 54 53 53 53 53 52 48 45 43 40 40 40 41 41 43 50 57 60 61 60 60 64 73 74 73 72 70 72 75 77 75 74 81 83 79 73 69 68 66 67 66 63 61 nan nan nan nan nan nan nan nan nan nan nan nan nan nan nan nan nan nan nan nan nan nan nan nan nan nan nan nan nan nan nan nan
53 53 54 54 54 55 56 57 56 55 53 52 52 53 53 51 51 49 42 39 39 41 43 45 46 47 47 55 65 71 74 82 81 76 73 73 73 74 79 83 80 75 74 82 80 73 71 71 68 67 67 64 nan nan nan nan nan nan nan nan nan nan nan nan nan nan nan nan nan nan nan nan nan nan nan nan nan nan nan nan nan nan nan nan nan
58 57 56 57 57 57 57 56 55 53 52 52 54 54 54 54 52 51 51 nan nan nan nan nan 55 52 51 49 58 76 80 84 85 80 75 73 80 83 82 82 81 76 66 69 73 68 66 71 73 70 67 nan nan nan nan nan nan nan nan nan nan nan nan nan nan nan nan nan nan nan nan nan nan nan nan nan nan nan nan nan nan nan nan nan nan
59 58 57 57 57 55 54 54 53 52 51 51 52 53 53 53 53 nan nan nan nan nan nan nan nan nan nan 59 59 72 85 91 91 87 81 81 84 87 86 80 81 72 67 64 64 61 61 66 71 68 nan nan nan nan nan nan nan nan nan nan nan nan nan nan nan nan nan nan nan nan nan nan nan nan nan nan nan nan nan nan nan nan nan nan nan
58 60 63 59 55 55 54 52 52 51 51 52 52 52 52 53 54 54 nan nan nan nan nan nan nan nan nan nan nan 73 85 91 92 96 97 93 88 88 88 82 75 68 63 64 65 63 59 61 68 nan nan nan nan nan nan nan nan nan nan nan nan nan nan nan nan nan nan nan nan nan nan nan nan nan nan nan nan nan nan nan nan nan nan nan nan
57 57 57 56 54 53 52 51 50 50 51 53 53 51 53 56 58 58 nan nan nan nan nan nan nan nan nan nan nan nan 92 92 91 94 98 99 94 88 79 72 69 63 61 61 64 65 60 nan nan nan nan nan nan nan nan nan nan nan nan nan nan nan nan nan nan nan nan nan nan nan nan nan nan nan nan nan nan nan nan nan nan nan nan nan nan
55 55 54 52 51 51 51 50 49 48 nan nan 51 51 54 56 57 nan nan nan nan nan nan nan nan nan nan nan nan nan 71 86 80 90 98 95 85 76 70 68 67 68 67 63 62 61 nan nan nan nan nan nan nan nan nan nan nan nan nan nan nan nan nan nan nan nan nan nan nan nan nan nan nan nan nan nan nan nan nan nan nan nan nan nan nan
55 53 51 48 49 49 49 49 48 46 48 49 49 nan nan nan nan nan nan nan nan nan nan nan nan nan nan nan nan nan nan 50 68 74 87 87 75 68 66 66 65 65 63 62 60 59 nan nan nan nan nan nan nan nan nan nan nan nan nan nan nan nan nan nan nan nan nan nan nan nan nan nan nan nan nan nan nan nan nan nan nan nan nan nan nan
54 53 48 45 48 47 47 47 47 46 47 48 47 49 nan nan nan nan nan nan nan nan nan nan nan nan nan nan nan nan nan 59 70 69 74 74 68 62 64 68 67 65 64 65 62 nan nan nan nan nan nan nan nan nan nan nan nan nan nan nan nan nan nan nan nan nan nan nan nan nan nan nan nan nan nan nan nan nan nan nan nan nan nan nan nan
53 53 49 nan 48 48 47 48 47 47 46 46 46 48 48 49 50 49 48 nan nan nan nan nan nan nan nan nan 17 9 17 46 68 60 53 56 61 60 59 63 65 64 65 nan nan nan nan nan nan nan nan nan nan nan nan nan nan nan nan nan nan nan nan nan nan nan nan nan nan nan nan nan nan nan nan nan nan nan nan nan nan nan nan nan nan
49 49 49 49 45 45 46 47 47 46 nan 46 46 47 48 48 48 46 nan nan nan nan nan nan nan nan nan nan nan nan 4 20 48 52 40 40 50 52 51 53 55 53 nan nan nan nan nan nan nan nan nan nan nan nan nan nan nan nan nan nan nan nan nan nan nan nan nan nan nan nan nan nan nan nan nan nan nan nan nan nan nan nan nan nan nan
47 46 47 46 46 46 45 47 46 47 nan 48 47 47 nan nan 49 46 45 45 nan nan 40 34 nan nan nan nan nan nan 24 14 23 36 40 41 43 43 43 47 nan nan 44 nan nan nan nan nan nan nan nan nan nan nan nan nan nan nan nan nan nan nan nan nan nan nan nan nan nan nan nan nan nan nan nan nan nan nan nan nan nan nan nan nan nan
50 48 47 47 47 47 47 47 48 49 50 50 49 48 48 51 51 nan 44 44 43 42 39 32 23 20 nan nan nan 38 35 25 23 27 29 31 34 36 37 nan nan nan nan nan nan nan nan nan nan nan nan nan nan nan nan nan nan nan nan nan nan nan nan nan nan nan nan nan nan nan nan nan nan nan nan nan nan nan nan nan nan nan nan nan nan
52 50 50 50 49 49 49 49 49 49 50 50 50 48 48 48 51 49 nan 42 42 40 39 34 25 20 nan nan nan nan 31 31 30 29 29 29 30 31 nan nan nan nan nan nan nan nan nan nan nan nan nan nan nan nan nan nan nan nan nan nan nan nan nan nan nan nan nan nan nan nan nan nan nan nan nan nan nan nan nan nan nan nan nan nan nan
49 49 49 50 50 51 51 50 49 49 49 50 49 49 nan nan 47 45 43 nan 40 41 38 nan nan nan nan nan nan nan nan nan nan nan nan nan nan nan nan nan nan nan nan nan nan nan nan nan nan nan nan nan nan nan nan nan nan nan nan nan nan nan nan nan nan nan nan nan nan nan nan nan nan nan nan nan nan nan nan nan nan nan nan nan nan
44 45 48 49 50 49 49 49 49 49 49 49 47 46 nan nan nan nan nan nan nan nan nan nan nan nan nan nan nan nan nan nan nan nan nan nan nan nan nan nan nan nan nan nan nan nan nan nan nan nan nan nan nan nan nan nan nan nan nan nan nan nan nan nan nan nan nan nan nan nan nan nan nan nan nan nan nan nan nan nan nan nan nan nan nan
44 45 nan nan 47 nan nan nan nan nan nan nan nan nan nan nan nan nan nan nan nan nan nan nan 32 30 28 27 28 nan nan nan nan nan nan nan nan 35 36 36 38 39 40 nan nan nan nan nan nan nan nan nan nan nan nan nan nan nan nan nan nan nan nan nan nan nan nan nan nan nan nan nan nan nan nan nan nan nan nan nan nan nan nan nan nan
nan nan nan nan nan nan nan nan nan nan nan nan nan nan nan nan nan nan nan nan nan nan nan nan 30 28 27 28 28 28 28 29 30 30 30 30 31 32 33 34 35 36 37 39 39 nan nan nan nan nan nan nan nan nan nan nan nan nan nan nan nan nan nan nan nan nan nan nan nan nan nan nan nan nan nan nan nan nan nan nan nan nan nan nan nan
nan nan nan nan nan nan nan nan nan nan nan nan nan nan nan nan nan nan nan nan nan nan nan nan nan nan nan 25 25 nan nan 28 30 31 31 31 31 32 33 34 35 36 36 37 nan nan nan nan nan nan nan nan nan nan nan nan nan nan nan nan nan nan nan nan nan nan nan nan nan nan nan nan nan nan nan nan nan nan nan nan nan nan nan nan nan
nan nan nan nan nan nan nan nan nan nan nan nan nan nan nan nan nan nan nan nan nan nan nan nan nan nan 23 nan nan nan nan nan nan nan nan 32 32 33 35 36 nan nan nan nan nan nan nan nan nan nan nan nan nan nan nan nan nan nan nan nan nan nan nan nan nan nan nan nan nan nan nan nan nan nan nan nan nan nan nan nan nan nan nan nan nan
nan nan nan nan nan nan nan nan nan nan nan nan nan nan nan nan nan nan nan nan nan nan nan nan nan 27 27 26 27 nan nan nan nan nan nan nan nan nan nan nan nan nan nan nan nan nan nan nan nan nan nan nan nan nan nan nan nan nan nan nan nan nan nan nan nan nan nan nan nan nan nan nan nan nan nan nan nan nan nan nan nan nan nan nan nan
Wind_Direction
301 295 290 291 292 296 297 296 299 291 290 288 288 287 283 282 282 283 280 287 290 298 301 305 308 312 311 295 291 294 299 297 293 298 310 325 338 345 340 341 345 343 341 341 340 339 354 3 5 6 0 1 357 355 354 352 351 351 348 349 350 344 344 346 356 2 349 341 340 339 332 331 332 329 324 318 313 309 309 309 309 309 308 306 303
302 298 293 292 304 302 303 296 295 290 294 291 292 287 284 283 282 281 287 289 291 297 300 299 301 306 304 291 284 291 296 295 292 293 306 320 333 334 339 339 342 343 339 340 338 337 348 359 2 359 353 357 353 351 350 349 347 349 346 349 347 342 341 343 348 353 356 338 340 338 335 331 331 328 323 318 314 309 308 307 308 309 308 306 305
302 291 292 295 305 301 299 298 295 297 296 289 294 292 287 285 283 287 290 289 290 294 294 297 299 301 296 283 279 286 294 294 287 291 301 315 328 336 341 342 345 347 348 349 346 342 346 350 352 347 339 345 345 344 342 341 340 343 346 344 346 344 339 343 345 347 349 346 338 337 334 329 329 321 318 314 310 308 307 309 309 307 306 306 304
291 288 291 299 303 302 304 300 303 304 301 289 292 292 286 284 285 290 292 289 291 291 293 297 298 298 292 280 278 284 293 291 286 288 297 310 322 331 336 341 343 347 348 348 347 345 349 346 346 343 338 340 340 338 336 334 331 332 340 340 343 345 340 341 346 345 342 343 337 338 332 330 326 322 316 314 314 311 310 308 308 307 306 305 304
288 294 301 310 310 312 316 311 309 312 310 296 303 297 292 287 284 293 293 295 296 291 291 295 297 295 285 279 275 283 292 294 289 289 290 299 315 324 329 334 338 341 343 341 342 348 354 356 351 347 343 343 340 337 333 333 327 326 333 336 340 341 338 338 342 342 342 341 338 334 332 331 327 323 322 323 321 320 317 317 313 310 308 306 304
294 295 301 309 313 324 322 321 323 326 322 315 314 309 303 297 293 293 299 302 302 298 298 296 294 295 283 273 274 282 290 294 292 289 292 296 305 316 321 328 333 335 337 338 340 348 356 359 355 350 347 344 339 332 329 331 324 324 331 335 337 337 338 337 337 338 339 339 336 333 329 328 326 326 327 327 326 324 322 320 319 319 318 315 311
286 292 301 313 313 327 329 333 329 332 324 319 311 313 317 315 311 307 304 310 310 308 307 305 293 290 281 272 276 282 290 296 290 287 288 292 299 307 317 325 330 330 335 339 342 349 354 356 354 350 347 344 340 333 328 327 324 329 332 335 335 335 335 335 334 335 335 335 333 330 328 325 323 324 322 323 325 326 325 322 322 321 322 320 316
280 284 296 304 309 323 332 335 336 337 338 337 341 342 339 332 327 316 311 320 326 325 320 311 297 289 286 279 277 280 290 296 294 289 288 290 290 298 309 319 328 330 333 337 344 349 351 353 356 352 348 350 352 347 339 335 331 333 333 333 333 334 334 333 331 332 334 335 331 327 325 323 322 322 323 325 328 328 326 323 321 319 319 318 316
277 290 296 304 307 307 312 324 332 341 354 1 4 8 7 2 353 344 332 327 320 328 323 316 305 299 295 288 284 285 294 301 294 289 287 290 287 291 302 313 321 328 332 336 342 347 349 353 359 356 351 354 358 353 347 343 337 336 333 334 334 333 333 331 329 329 332 332 330 326 324 322 321 323 325 326 328 325 320 322 323 321 318 314 310
280 299 313 311 289 289 303 316 328 340 354 3 4 6 8 9 10 6 358 346 332 320 318 315 311 306 304 299 291 289 295 296 299 301 292 286 288 285 292 305 318 324 329 333 338 345 350 354 358 359 353 352 350 350 nan nan 345 338 331 332 333 332 332 332 331 330 332 333 331 328 326 323 323 323 322 323 324 323 325 325 325 321 318 314 310
289 311 324 299 283 288 298 317 323 340 352 355 355 357 357 355 3 7 6 1 354 336 326 325 316 308 309 303 300 295 294 295 302 298 297 295 287 287 291 300 311 320 328 332 337 342 347 351 354 351 349 347 348 350 350 nan nan nan 338 335 334 333 334 335 335 332 332 334 332 330 327 326 324 320 318 319 324 326 326 326 324 321 318 314 311
298 304 316 292 288 300 307 311 321 334 338 346 344 343 341 344 349 352 353 353 348 346 346 340 327 318 307 308 305 299 296 297 297 300 299 298 295 287 288 294 303 314 325 333 335 337 342 344 345 343 343 345 347 347 349 350 348 346 nan 339 339 341 339 336 334 332 333 335 333 331 327 324 320 319 321 323 326 328 328 327 325 322 320 318 314
288 297 277 281 291 296 297 305 317 322 329 329 323 322 328 336 340 339 343 336 332 345 351 345 343 334 327 320 315 306 296 294 297 300 301 301 302 295 286 291 299 308 318 329 335 336 334 332 333 332 333 336 340 343 343 345 346 347 nan nan nan 342 343 341 337 335 332 333 334 329 325 319 319 322 325 328 328 330 327 326 324 322 320 319 316
275 275 275 279 285 288 293 303 312 319 314 310 310 315 321 330 330 328 324 321 329 339 342 342 340 341 341 338 339 316 304 294 301 300 301 303 302 298 287 291 295 304 314 322 327 334 332 326 324 325 329 333 336 338 338 339 337 338 339 338 337 339 340 340 nan 335 331 332 329 328 319 318 323 325 328 330 330 330 328 326 323 322 321 319 312
264 255 261 268 272 278 288 296 301 301 300 300 302 308 313 313 316 315 313 316 320 324 326 334 340 346 345 345 339 336 322 303 304 302 303 304 303 297 290 288 292 297 305 315 325 328 326 322 320 321 325 329 331 333 333 334 334 334 336 338 339 337 335 335 334 333 331 329 325 325 321 322 325 326 327 329 331 328 326 324 322 320 318 315 316
258 255 255 257 267 273 280 281 282 284 289 292 296 301 302 305 306 302 302 304 306 307 310 318 325 327 329 339 338 338 332 313 312 309 305 303 301 288 290 292 295 295 298 307 316 317 318 316 315 317 317 322 326 328 328 327 331 334 334 336 336 335 333 334 331 331 329 328 325 325 325 324 323 325 324 326 326 326 324 321 321 321 320 320 320
265 265 264 262 266 270 272 274 276 279 281 285 292 296 297 298 295 290 295 298 299 304 308 310 308 310 319 328 329 319 320 310 314 312 309 307 295 288 291 295 299 294 294 299 307 311 311 311 310 310 312 317 319 323 325 324 329 332 334 333 331 331 332 326 nan nan nan 327 329 325 nan 307 313 316 319 321 324 324 324 323 324 323 322 323 321
274 273 274 274 272 273 272 274 276 277 277 285 290 289 289 284 288 287 292 294 296 300 297 295 297 298 307 316 314 311 310 302 312 310 312 310 304 295 294 297 304 300 295 297 297 302 306 309 309 308 309 312 316 323 325 323 327 330 331 333 333 333 331 324 321 320 nan 317 313 311 313 nan 316 319 320 321 324 326 325 326 323 323 325 325 324
292 294 292 284 273 265 261 263 264 269 273 277 277 277 278 280 278 276 281 283 287 284 284 287 286 288 294 300 302 301 298 296 307 306 309 307 304 297 297 298 306 301 299 299 299 300 301 304 311 309 308 309 315 321 323 324 327 327 327 327 328 331 330 323 322 321 320 320 318 317 316 318 321 323 324 325 327 329 326 326 325 327 328 nan 325
285 276 272 269 267 262 257 258 264 272 275 272 273 275 274 276 281 282 285 284 283 283 285 287 289 282 284 291 285 287 296 286 294 302 304 304 308 297 293 300 306 305 300 295 294 296 298 301 306 309 309 307 312 318 321 325 326 324 323 323 324 327 325 322 323 323 321 321 319 318 320 320 322 324 324 323 324 325 326 328 328 329 330 328 nan
256 257 259 262 265 268 261 260 270 280 278 271 272 273 275 279 280 280 285 285 282 283 294 294 295 286 280 281 279 285 285 283 285 299 300 302 304 300 292 300 301 300 297 296 297 295 297 300 300 304 306 305 308 316 319 324 324 321 320 319 319 319 316 319 321 323 321 319 317 318 319 319 321 324 325 325 325 325 nan nan 330 330 nan nan nan
257 266 273 276 281 288 288 281 283 286 284 278 280 283 280 280 281 283 284 284 287 292 293 290 291 285 280 276 274 280 279 283 278 294 297 297 298 301 292 292 291 294 296 295 298 296 295 295 295 297 303 301 307 313 317 318 320 312 315 310 303 308 315 317 319 321 320 316 316 318 320 322 323 326 327 326 nan nan nan nan nan nan nan nan nan
255 263 270 276 280 285 288 292 290 289 288 289 289 289 285 286 286 285 287 288 292 292 289 286 282 279 277 271 272 275 274 275 285 283 290 294 294 294 290 281 286 280 289 295 297 294 291 291 290 293 299 300 305 310 311 314 309 306 303 303 307 310 311 316 317 318 317 315 316 317 320 322 323 325 nan nan nan nan nan nan nan nan nan nan nan
255 261 267 273 278 282 285 288 290 290 290 288 290 291 290 290 287 286 288 289 290 293 287 286 286 288 287 282 276 275 277 274 279 287 285 292 292 296 293 284 280 277 281 287 290 289 288 287 286 290 295 299 303 304 303 302 301 301 300 303 305 308 310 311 314 315 314 314 316 319 321 322 324 nan nan nan nan nan nan nan nan nan nan nan nan
258 264 269 274 276 279 282 284 286 287 286 286 287 287 289 288 287 285 285 287 288 291 294 290 291 293 292 291 289 286 283 277 275 283 292 292 294 295 296 294 288 286 277 272 279 284 283 285 284 288 292 296 298 293 293 297 296 296 299 301 304 305 308 310 313 314 314 314 316 319 321 323 322 nan nan nan nan nan nan nan nan nan nan nan nan
260 264 268 272 276 278 279 280 281 280 280 280 282 282 283 283 283 280 282 285 289 293 293 293 290 290 290 291 287 284 278 275 276 280 285 292 292 296 297 296 293 288 284 274 274 275 279 281 283 285 286 285 284 287 288 289 293 296 299 301 303 306 307 309 311 312 313 314 315 318 319 318 nan nan nan nan nan nan nan nan nan nan nan nan nan
262 265 267 268 269 270 272 273 273 275 278 277 278 279 281 281 281 281 285 290 291 292 293 290 287 291 292 289 281 276 272 272 271 272 272 276 278 283 285 281 281 279 280 272 271 269 273 274 274 276 275 282 282 282 282 285 286 289 292 297 300 303 305 307 310 312 313 312 313 315 nan nan nan nan nan nan nan nan nan nan nan nan nan nan nan
262 264 265 266 266 266 267 266 267 269 271 273 274 275 277 280 281 284 286 288 288 288 287 288 289 290 288 288 283 282 278 277 278 278 277 275 274 274 277 275 272 273 274 272 272 268 266 268 269 269 272 274 276 277 279 283 286 288 293 nan nan nan nan nan 302 309 309 309 309 nan nan nan nan nan nan nan nan nan nan nan nan nan nan nan nan
264 265 265 264 264 265 266 266 268 269 270 270 271 271 271 273 275 277 282 283 285 286 287 289 290 290 287 285 282 278 279 282 285 288 287 285 281 276 271 270 270 271 271 272 268 265 265 265 266 268 269 272 273 276 278 281 285 287 289 nan nan nan nan nan 308 309 308 305 nan nan nan nan nan nan nan nan nan nan nan nan nan nan nan nan nan
265 265 264 264 264 265 265 266 266 266 266 266 266 265 266 269 270 269 269 273 279 287 289 289 289 286 283 280 280 279 279 281 288 287 288 287 285 282 278 279 276 269 268 271 269 264 263 263 263 265 268 271 274 276 279 281 nan nan nan nan nan nan nan nan 308 305 nan nan nan nan nan nan nan nan nan nan nan nan nan nan nan nan nan nan nan
263 264 264 265 266 267 269 269 268 267 266 266 267 268 267 268 272 276 280 279 281 281 282 287 289 289 285 282 282 286 285 278 277 283 285 286 286 282 279 279 279 277 275 268 263 262 262 261 261 264 267 270 272 nan nan nan nan nan nan nan nan nan nan nan nan nan nan nan nan nan nan nan nan nan nan nan nan nan nan nan nan nan nan nan nan
263 265 266 268 270 271 272 271 271 270 269 268 268 269 270 272 275 281 283 279 279 281 283 283 281 279 285 290 286 279 280 279 281 281 282 285 284 280 279 279 277 281 281 269 256 253 255 258 260 263 264 265 nan nan nan nan nan nan nan nan nan nan nan nan nan nan nan nan nan nan nan nan nan nan nan nan nan nan nan nan nan nan nan nan nan
260 262 263 265 267 267 267 266 267 268 267 266 265 266 267 267 266 266 276 nan nan nan nan nan 277 281 283 283 290 288 283 281 281 278 275 275 274 274 275 276 278 281 270 254 250 250 252 253 254 257 261 nan nan nan nan nan nan nan nan nan nan nan nan nan nan nan nan nan nan nan nan nan nan nan nan nan nan nan nan nan nan nan nan nan nan
262 263 265 266 267 268 268 267 268 268 267 266 265 266 269 271 271 nan nan nan nan nan nan nan nan nan nan 291 290 289 284 280 276 273 269 264 264 265 267 267 273 275 271 260 254 251 251 252 253 255 nan nan nan nan nan nan nan nan nan nan nan nan nan nan nan nan nan nan nan nan nan nan nan nan nan nan nan nan nan nan nan nan nan nan nan
264 264 263 266 269 269 268 267 266 267 266 265 265 266 268 271 274 274 nan nan nan nan nan nan nan nan nan nan nan 291 285 279 273 266 262 259 258 259 258 257 258 262 262 262 259 253 250 252 252 nan nan nan nan nan nan nan nan nan nan nan nan nan nan nan nan nan nan nan nan nan nan nan nan nan nan nan nan nan nan nan nan nan nan nan nan
263 264 266 266 267 266 266 265 263 263 262 262 264 267 268 269 270 272 nan nan nan nan nan nan nan nan nan nan nan nan 294 289 274 261 258 258 256 256 257 258 260 261 257 252 248 248 252 nan nan nan nan nan nan nan nan nan nan nan nan nan nan nan nan nan nan nan nan nan nan nan nan nan nan nan nan nan nan nan nan nan nan nan nan nan nan
264 265 267 267 266 266 266 265 264 261 nan nan 264 267 269 270 272 nan nan nan nan nan nan nan nan nan nan nan nan nan 290 289 264 248 251 255 254 249 250 255 256 257 257 252 250 258 nan nan nan nan nan nan nan nan nan nan nan nan nan nan nan nan nan nan nan nan nan nan nan nan nan nan nan nan nan nan nan nan nan nan nan nan nan nan nan
264 266 268 267 267 267 266 266 264 262 262 264 265 nan nan nan nan nan nan nan nan nan nan nan nan nan nan nan nan nan nan 257 253 246 245 243 242 239 244 249 252 254 255 255 258 265 nan nan nan nan nan nan nan nan nan nan nan nan nan nan nan nan nan nan nan nan nan nan nan nan nan nan nan nan nan nan nan nan nan nan nan nan nan nan nan
266 267 266 265 266 266 266 265 264 262 263 265 267 267 nan nan nan nan nan nan nan nan nan nan nan nan nan nan nan nan nan 194 208 215 231 230 224 229 236 241 244 245 249 254 258 nan nan nan nan nan nan nan nan nan nan nan nan nan nan nan nan nan nan nan nan nan nan nan nan nan nan nan nan nan nan nan nan nan nan nan nan nan nan nan nan
264 266 266 nan 266 266 265 265 264 263 264 267 267 267 267 269 273 277 280 nan nan nan nan nan nan nan nan nan 250 193 169 174 190 215 227 224 223 227 233 238 242 244 248 nan nan nan nan nan nan nan nan nan nan nan nan nan nan nan nan nan nan nan nan nan nan nan nan nan nan nan nan nan nan nan nan nan nan nan nan nan nan nan nan nan nan
263 264 265 264 262 265 264 263 263 264 nan 268 268 269 269 269 272 276 nan nan nan nan nan nan nan nan nan nan nan nan 267 165 189 206 217 225 229 233 238 242 246 249 nan nan nan nan nan nan nan nan nan nan nan nan nan nan nan nan nan nan nan nan nan nan nan nan nan nan nan nan nan nan nan nan nan nan nan nan nan nan nan nan nan nan nan
260 261 261 261 260 260 260 261 263 265 nan 270 269 270 nan nan 273 275 275 277 nan nan 285 295 nan nan nan nan nan nan 235 185 194 209 211 214 227 237 241 245 nan nan 265 nan nan nan nan nan nan nan nan nan nan nan nan nan nan nan nan nan nan nan nan nan nan nan nan nan nan nan nan nan nan nan nan nan nan nan nan nan nan nan nan nan nan
259 260 260 260 260 260 260 262 263 264 266 268 268 269 270 272 273 nan 275 274 276 278 278 282 294 291 nan nan nan 249 243 249 264 258 245 238 241 247 249 nan nan nan nan nan nan nan nan nan nan nan nan nan nan nan nan nan nan nan nan nan nan nan nan nan nan nan nan nan nan nan nan nan nan nan nan nan nan nan nan nan nan nan nan nan nan
261 261 261 261 262 264 263 263 264 263 264 264 264 264 266 270 273 275 nan 272 272 275 277 278 281 281 nan nan nan nan 255 262 269 269 262 259 256 253 nan nan nan nan nan nan nan nan nan nan nan nan nan nan nan nan nan nan nan nan nan nan nan nan nan nan nan nan nan nan nan nan nan nan nan nan nan nan nan nan nan nan nan nan nan nan nan
261 263 264 264 263 265 266 265 265 263 261 263 264 264 nan nan 267 269 274 nan 271 271 273 nan nan nan nan nan nan nan nan nan nan nan nan nan nan nan nan nan nan nan nan nan nan nan nan nan nan nan nan nan nan nan nan nan nan nan nan nan nan nan nan nan nan nan nan nan nan nan nan nan nan nan nan nan nan nan nan nan nan nan nan nan nan
258 259 260 262 262 263 264 264 264 265 264 264 266 265 nan nan nan nan nan nan nan nan nan nan nan nan nan nan nan nan nan nan nan nan nan nan nan nan nan nan nan nan nan nan nan nan nan nan nan nan nan nan nan nan nan nan nan nan nan nan nan nan nan nan nan nan nan nan nan nan nan nan nan nan nan nan nan nan nan nan nan nan nan nan nan
257 256 nan nan 262 nan nan nan nan nan nan nan nan nan nan nan nan nan nan nan nan nan nan nan 279 279 277 276 280 nan nan nan nan nan nan nan nan 262 264 265 266 267 268 nan nan nan nan nan nan nan nan nan nan nan nan nan nan nan nan nan nan nan nan nan nan nan nan nan nan nan nan nan nan nan nan nan nan nan nan nan nan nan nan nan nan
nan nan nan nan nan nan nan nan nan nan nan nan nan nan nan nan nan nan nan nan nan nan nan nan 274 276 276 277 276 277 277 277 276 276 274 271 270 269 269 270 270 271 272 274 276 nan nan nan nan nan nan nan nan nan nan nan nan nan nan nan nan nan nan nan nan nan nan nan nan nan nan nan nan nan nan nan nan nan nan nan nan nan nan nan nan
nan nan nan nan nan nan nan nan nan nan nan nan nan nan nan nan nan nan nan nan nan nan nan nan nan nan nan 271 268 nan nan 272 274 277 279 278 276 276 277 277 278 279 280 280 nan nan nan nan nan nan nan nan nan nan nan nan nan nan nan nan nan nan nan nan nan nan nan nan nan nan nan nan nan nan nan nan nan nan nan nan nan nan nan nan nan
nan nan nan nan nan nan nan nan nan nan nan nan nan nan nan nan nan nan nan nan nan nan nan nan nan nan 276 nan nan nan nan nan nan nan nan 280 280 281 282 282 nan nan nan nan nan nan nan nan nan nan nan nan nan nan nan nan nan nan nan nan nan nan nan nan nan nan nan nan nan nan nan nan nan nan nan nan nan nan nan nan nan nan nan nan nan
nan nan nan nan nan nan nan nan nan nan nan nan nan nan nan nan nan nan nan nan nan nan nan nan nan 260 260 263 267 nan nan nan nan nan nan nan nan nan nan nan nan nan nan nan nan nan nan nan nan nan nan nan nan nan nan nan nan nan nan nan nan nan nan nan nan nan nan nan nan nan nan nan nan nan nan nan nan nan nan nan nan nan nan nan nan